CAPE
0 0 0 0 0 0 0 0 0 0 0 0 0 0 0 1 1 0 0 0 0 0
0 0 1 0 0 0 0 0 0 0 0 1 2 0 0 0 0 0 0 0 0 0
1 1 3 3 2 0 0 0 0 1 1 0 0 0 0 0 0 0 0 0 0 0
6 6 6 5 3 2 1 2 2 1 0 0 0 0 0 0 0 0 0 0 0 0
6 5 4 2 2 2 2 1 1 1 1 0 0 0 0 0 0 0 0 0 0 0
6 4 3 2 2 2 2 2 1 0 0 0 0 0 0 0 0 0 0 0 0 0
2 2 1 1 2 2 2 2 0 0 0 0 0 0 0 0 0 0 0 0 0 0
3 2 3 3 3 3 1 0 0 0 0 0 0 0 0 0 0 0 0 0 0 0
3 3 4 3 3 0 0 0 0 0 0 0 0 0 0 0 0 0 0 0 0 0
4 2 3 0 0 0 0 0 0 0 0 0 0 0 0 0 0 0 0 0 0 0
2 2 0 0 0 0 0 0 0 0 0 0 0 0 0 0 0 0 0 0 0 0
2 0 0 0 0 0 0 0 0 0 0 0 0 0 0 0 0 0 0 0 0 0
0 0 0 0 0 0 0 0 0 0 0 0 0 0 0 0 0 0 0 0 0 0
0 0 0 0 0 0 0 0 0 0 0 0 0 0 0 0 0 0 0 0 0 0
CIN
-0 -0 -0 -0 -0 -0 -0 -0 -0 -0 -0 -0 -0 -0 -0 -0 -0 -0 -0 -0 -0 -0
-0 -0 -0 -0 -0 -0 -0 -0 -0 -0 -0 -0 -0 -0 -0 -0 -0 -0 -0 -0 -0 -0
-0 -0 -0 -0 -0 -0 -0 -0 -0 -0 -0 -0 -0 -0 -0 -0 -0 -0 -0 -0 -0 -0
-0 -0 -0 -0 -0 -0 -0 -0 -0 -0 -0 -0 -0 -0 -0 -0 -0 -0 -0 -0 -0 -0
-0 -0 -0 -0 -0 -0 -0 -0 -0 -0 -0 -0 -0 -0 -0 -0 -0 -0 -0 -0 -0 -0
-0 -0 -0 -0 -0 -0 -0 -0 -0 -0 -0 -0 -0 -0 -0 -0 -0 -0 -0 -0 -0 -0
-0 -0 -0 -0 -0 -0 -0 -0 -0 -0 -0 -0 -0 -0 -0 -0 -0 -0 -0 -0 -0 -0
-0 -0 -0 -0 -0 -0 -0 -0 -0 -0 -0 -0 -0 -0 -0 -0 -0 -0 -0 -0 -0 -0
-0 -0 -0 -0 -0 -0 -0 -0 -0 -0 -0 -0 -0 -0 -0 -0 -0 -0 -0 -0 -0 -0
-0 -0 -0 -0 -0 -0 -0 -0 -0 -0 -0 -0 -0 -0 -0 -0 -0 -0 -0 -0 -0 -0
-0 -0 -0 -0 -0 -0 -0 -0 -0 -0 -0 -0 -0 -0 -0 -0 -0 -0 -0 -0 -0 -0
-0 -0 -0 -0 -0 -0 -0 -0 -0 -0 -0 -0 -0 -0 -0 -0 -0 -0 -0 -0 -0 -0
-0 -0 -0 -0 -0 -0 -0 -0 -0 -0 -0 -0 -0 -0 -0 -0 -0 -0 -0 -0 -0 -0
-0 -0 -0 -0 -0 -0 -0 -0 -0 -0 -0 -0 -0 -0 -0 -0 -0 -0 -0 -0 -0 -0
Wind_Speed
24 23 22 20 17 15 13 11 9 7 7 6 7 9 8 9 10 11 12 12 13 13
23 23 22 18 16 13 11 8 6 5 5 6 7 7 6 9 10 9 8 10 12 13
21 21 19 18 16 11 8 5 4 4 4 4 5 7 9 8 8 8 10 11 12 14
19 19 18 16 13 11 7 5 4 2 2 3 6 7 7 8 9 10 11 12 13 16
16 15 15 14 10 10 5 3 2 2 3 5 6 7 8 9 9 10 11 13 15 17
15 14 13 11 11 9 5 5 4 5 5 6 7 9 9 10 10 11 13 15 17 18
11 11 10 9 9 7 6 7 6 7 7 8 10 9 9 10 11 13 15 17 18 19
11 12 10 10 9 7 7 8 7 9 10 11 9 9 10 12 13 15 16 18 19 21
12 13 14 11 12 9 9 8 11 13 11 9 10 11 12 14 14 16 17 19 20 22
16 15 15 15 14 12 12 13 12 11 12 13 14 14 15 15 16 17 18 20 21 22
17 17 15 13 16 15 13 12 13 13 15 17 17 16 16 16 17 18 19 21 22 22
17 18 19 19 18 13 13 14 16 19 18 17 16 16 16 17 17 19 21 21 22 24
19 19 18 16 15 19 20 19 18 17 17 17 17 18 17 17 18 21 22 24 24 24
14 17 17 22 22 21 19 18 17 16 17 18 18 19 20 21 21 21 22 23 24 26
Wind_Direction
235 238 239 239 241 251 259 265 278 287 295 311 314 320 333 335 334 334 338 344 345 353
236 236 236 235 240 250 255 259 270 287 306 321 333 337 353 345 347 356 4 7 6 3
235 236 232 231 231 236 235 247 260 293 319 353 5 355 349 2 19 22 18 17 14 3
239 234 231 231 229 224 224 242 263 276 48 25 28 21 20 27 33 32 25 12 1 356
237 229 223 219 208 202 212 184 168 87 68 46 33 46 44 42 37 29 10 359 0 1
228 220 218 197 186 165 154 138 120 101 86 65 61 61 52 44 24 8 3 2 3 5
207 198 186 184 165 144 133 111 96 95 78 73 69 57 40 23 15 13 10 13 17 10
170 163 152 165 139 122 121 102 99 91 83 72 52 32 32 25 17 18 21 17 9 3
145 146 139 140 124 110 107 106 98 89 79 56 34 36 32 31 35 25 16 7 4 1
132 126 127 119 108 110 103 98 89 72 60 55 49 47 46 39 24 18 13 8 4 2
120 120 117 116 107 103 93 82 73 63 64 64 65 54 37 32 26 20 16 12 10 7
116 112 109 104 98 91 83 76 70 77 73 58 47 41 36 34 28 22 16 13 9 3
103 100 100 96 91 86 85 81 77 66 54 46 41 40 38 34 26 16 11 7 5 4
100 93 89 89 87 85 81 77 67 53 45 43 39 35 29 24 19 14 9 6 3 0